This is the latest recevied weather packets stored in our database for station/object N7CEE. If no packets are shown the sender has not sent any weather packets the latest 10 day(s).
| Time | Temp. | Humidity | Pressure | Rain* | Wind** | Luminosity | Snow |
|---|---|---|---|---|---|---|---|
| 1777683157 | 12.78° C | 30% | 1022.3 hPa | 0 mm | - | 22 W/m² | - |
| 1777682854 | 13.33° C | 29% | 1022.8 hPa | 0 mm | - | 21 W/m² | - |
| 1777682550 | 13.89° C | 29% | 1022.5 hPa | 0 mm | - | 22 W/m² | - |
| 1777682248 | 13.89° C | 29% | 1022.4 hPa | 0 mm | - | 20 W/m² | - |
| 1777681945 | 13.89° C | 29% | 1022 hPa | 0 mm | - | 20 W/m² | - |
| 1777681641 | 13.89° C | 28% | 1022.1 hPa | 0 mm | - | 20 W/m² | - |
| 1777681339 | 13.89° C | 29% | 1022 hPa | 0 mm | - | 23 W/m² | - |
| 1777681035 | 14.44° C | 29% | 1022 hPa | 0 mm | - | 28 W/m² | - |
| 1777680734 | 14.44° C | 30% | 1022.1 hPa | 0 mm | - | 31 W/m² | - |
| 1777680431 | 14.44° C | 29% | 1022.1 hPa | 0 mm | - | 40 W/m² | - |
| 1777680129 | 14.44° C | 29% | 1021.9 hPa | 0 mm | - | 54 W/m² | - |
| 1777679824 | 14.44° C | 29% | 1022 hPa | 0 mm | - | 75 W/m² | - |
| 1777679520 | 14.44° C | 29% | 1021.9 hPa | 0 mm | - | 88 W/m² | - |
| 1777679216 | 15° C | 28% | 1022.1 hPa | 0 mm | - | 79 W/m² | - |
| 1777678914 | 15.56° C | 27% | 1021.9 hPa | 0 mm | - | 79 W/m² | - |
| 1777678612 | 15.56° C | 27% | 1021.9 hPa | 0 mm | - | 91 W/m² | - |
| 1777678308 | 15.56° C | 27% | 1021.8 hPa | 0 mm | - | 103 W/m² | - |
| 1777678004 | 15.56° C | 26% | 1021.6 hPa | 0 mm | - | 113 W/m² | - |
| 1777677702 | 15.56° C | 28% | 1021.9 hPa | 0 mm | - | 135 W/m² | - |
| 1777677399 | 15.56° C | 27% | 1021.8 hPa | 0 mm | - | 133 W/m² | - |
| 1777677097 | 15.56° C | 27% | 1021.6 hPa | 0 mm | - | 127 W/m² | - |
| 1777676796 | 15° C | 27% | 1021.8 hPa | 0 mm | - | 115 W/m² | - |
| 1777676493 | 15° C | 27% | 1021.8 hPa | 0 mm | - | 108 W/m² | - |
| 1777676191 | 15° C | 27% | 1021.5 hPa | 0 mm | - | 106 W/m² | - |
| 1777675887 | 15° C | 27% | 1021.6 hPa | 0 mm | - | 120 W/m² | - |
* Rain latest hour (hover to see other rain measurements)
** Current wind speed in m/s (hover to see current wind gust speed)